Time,TemperatureF,DewpointF,PressureIn,WindDirection,WindDirectionDegrees,WindSpeedMPH,WindSpeedGustMPH,Humidity,HourlyPrecipIn,Conditions,Clouds,dailyrainin,SoftwareType,DateUTC
2013-09-10 12:00:00,80.5,67.1,30.14,NW,315,3.4,3.4,64,0.00,,,0.00,WUHU216HW,2013-09-10 17:00:00,
2013-09-10 12:01:00,80.5,67.1,30.14,NW,315,3.4,3.4,64,0.00,,,0.00,WUHU216HW,2013-09-10 17:01:00,
2013-09-10 12:06:00,80.3,67.0,30.14,WNW,293,0.4,3.4,64,0.00,,,0.00,WUHU216HW,2013-09-10 17:06:00,
2013-09-10 12:11:00,80.3,67.0,30.14,WNW,293,0.4,3.4,64,0.00,,,0.00,WUHU216HW,2013-09-10 17:11:00,
2013-09-10 12:16:00,80.3,67.0,30.14,WNW,293,0.4,0.4,64,0.00,,,0.00,WUHU216HW,2013-09-10 17:16:00,
2013-09-10 12:37:00,79.0,67.2,30.15,NE,45,1.1,1.1,67,0.00,,,0.00,WUHU216HW,2013-09-10 17:37:00,
2013-09-10 12:42:00,79.0,67.2,30.15,NE,45,1.1,1.1,67,0.00,,,0.00,WUHU216HW,2013-09-10 17:42:00,
2013-09-10 13:00:00,79.0,65.8,30.15,WNW,293,0.9,0.9,64,0.00,,,0.00,WUHU216HW,2013-09-10 18:00:00,
2013-09-10 13:05:00,79.0,65.8,30.15,WNW,293,0.9,0.9,64,0.00,,,0.00,WUHU216HW,2013-09-10 18:05:00,
2013-09-10 13:30:00,77.9,66.5,30.16,WNW,293,0.0,0.0,68,0.00,,,0.00,WUHU216HW,2013-09-10 18:30:00,
2013-09-10 13:35:00,77.9,66.5,30.16,WNW,293,0.0,0.0,68,0.00,,,0.00,WUHU216HW,2013-09-10 18:35:00,
2013-09-10 14:00:00,76.5,66.1,30.17,ESE,113,0.0,0.0,70,0.00,,,0.00,WUHU216HW,2013-09-10 19:00:00,
2013-09-10 14:05:00,76.5,66.1,30.17,ESE,113,0.0,0.0,70,0.00,,,0.00,WUHU216HW,2013-09-10 19:05:00,
2013-09-10 14:30:00,74.2,65.3,30.18,NNW,338,0.0,0.0,74,0.00,,,0.00,WUHU216HW,2013-09-10 19:30:00,
2013-09-10 14:35:00,74.2,65.3,30.18,NNW,338,0.0,0.0,74,0.00,,,0.00,WUHU216HW,2013-09-10 19:35:00,
2013-09-10 15:00:00,70.9,64.4,30.19,ESE,113,0.7,0.7,80,0.05,,,0.00,WUHU216HW,2013-09-10 20:00:00,
2013-09-10 15:05:00,70.9,64.4,30.19,ESE,113,0.7,0.7,80,0.05,,,0.00,WUHU216HW,2013-09-10 20:05:00,
2013-09-10 15:30:00,70.2,64.5,30.19,SSE,158,0.7,0.7,82,0.07,,,0.05,WUHU216HW,2013-09-10 20:30:00,
2013-09-10 15:35:00,70.2,64.5,30.19,SSE,158,0.7,0.7,82,0.07,,,0.05,WUHU216HW,2013-09-10 20:35:00,
2013-09-10 16:00:00,69.8,64.1,30.18,SSE,158,0.0,0.0,82,0.02,,,0.07,WUHU216HW,2013-09-10 21:00:00,
2013-09-10 16:05:00,69.8,64.1,30.18,SSE,158,0.0,0.0,82,0.02,,,0.07,WUHU216HW,2013-09-10 21:05:00,
2013-09-10 16:30:00,70.0,64.5,30.18,ESE,113,0.0,0.0,83,0.00,,,0.07,WUHU216HW,2013-09-10 21:30:00,
2013-09-10 16:35:00,70.0,64.5,30.18,ESE,113,0.0,0.0,83,0.00,,,0.07,WUHU216HW,2013-09-10 21:35:00,
2013-09-10 17:00:00,70.2,65.1,30.18,WSW,248,1.8,1.8,84,0.00,,,0.07,WUHU216HW,2013-09-10 22:00:00,
2013-09-10 17:05:00,70.2,65.1,30.18,WSW,248,1.8,1.8,84,0.00,,,0.07,WUHU216HW,2013-09-10 22:05:00,
2013-09-10 17:30:00,70.0,64.9,30.18,West,270,0.0,0.0,84,0.00,,,0.07,WUHU216HW,2013-09-10 22:30:00,
2013-09-10 17:35:00,70.0,64.9,30.18,West,270,0.0,0.0,84,0.00,,,0.07,WUHU216HW,2013-09-10 22:35:00,
2013-09-10 18:00:00,69.8,64.7,30.18,WSW,248,0.0,0.0,84,0.00,,,0.07,WUHU216HW,2013-09-10 23:00:00,
2013-09-10 18:05:00,69.8,64.7,30.18,WSW,248,0.0,0.0,84,0.00,,,0.07,WUHU216HW,2013-09-10 23:05:00,
2013-09-10 18:30:00,69.7,64.9,30.19,West,270,0.0,0.0,85,0.00,,,0.07,WUHU216HW,2013-09-10 23:30:00,
2013-09-10 18:35:00,69.7,64.9,30.19,West,270,0.0,0.0,85,0.00,,,0.07,WUHU216HW,2013-09-10 23:35:00,
2013-09-10 19:00:00,69.1,64.7,30.19,WSW,248,0.2,0.2,86,0.00,,,0.07,WUHU216HW,2013-09-11 00:00:00,
2013-09-10 19:05:00,69.1,64.7,30.19,WSW,248,0.2,0.2,86,0.00,,,0.07,WUHU216HW,2013-09-11 00:05:00,
2013-09-10 19:30:00,68.4,64.0,30.19,WSW,248,0.4,0.4,86,0.00,,,0.07,WUHU216HW,2013-09-11 00:30:00,
2013-09-10 19:35:00,68.4,64.0,30.19,WSW,248,0.4,0.4,86,0.00,,,0.07,WUHU216HW,2013-09-11 00:35:00,
2013-09-10 20:00:00,67.7,63.6,30.20,West,270,0.0,0.0,87,0.00,,,0.07,WUHU216HW,2013-09-11 01:00:00,
2013-09-10 20:05:00,67.7,63.6,30.20,West,270,0.0,0.0,87,0.00,,,0.07,WUHU216HW,2013-09-11 01:05:00,
2013-09-10 20:10:00,67.7,63.6,30.20,West,270,0.0,0.0,87,0.00,,,0.07,WUHU216HW,2013-09-11 01:10:00,
2013-09-10 20:30:00,66.6,62.6,30.20,WSW,248,0.0,0.0,87,0.00,,,0.07,WUHU216HW,2013-09-11 01:30:00,
2013-09-10 20:35:00,66.6,62.6,30.20,WSW,248,0.0,0.0,87,0.00,,,0.07,WUHU216HW,2013-09-11 01:35:00,
2013-09-10 21:00:00,65.9,61.8,30.20,West,270,0.4,0.4,87,0.00,,,0.07,WUHU216HW,2013-09-11 02:00:00,
2013-09-10 21:05:00,65.9,61.8,30.20,West,270,0.4,0.4,87,0.00,,,0.07,WUHU216HW,2013-09-11 02:05:00,
2013-09-10 21:10:00,65.9,61.8,30.20,West,270,0.4,0.4,87,0.00,,,0.07,WUHU216HW,2013-09-11 02:10:00,